Home   Weather   Cagliari   Past weeks

Flag for Italy Past Weather in Cagliari, Italy — Yesterday and Last 2 Weeks

Now
45 °F

Passing clouds.


Feels Like: 43 °F
Forecast: 42 / 57 °F
Wind: 3 mph from Northwest

Location: Cagliari / Elmas

Current Time: Jan 23, 2017 at 9:38:02 am

Latest Report: Jan 23, 2017 at 8:50 am


Visibility: 6 mi

Pressure: 29.86 "Hg

Humidity: 93%

Dew Point: 43 °F

Location of CagliariLocation

Past Weather in Cagliari — Graph

°F

Cagliari Temperature Yesterday

Maximum temperature yesterday: 59 °F (at 11:20 am)
Minimum temperature yesterday: 52 °F (at 3:50 am)
Average temperature yesterday: 55 °F

High & Low Weather Summary for the Past Weeks

 TemperatureHumidityPressure
High59 °F (Jan 20, 1:50 pm)100% (Jan 8, 8:50 pm)30.24 "Hg (Jan 8, 8:50 pm)
Low32 °F (Jan 17, 12:50 am)38% (Jan 9, 1:50 pm)29.56 "Hg (Jan 17, 1:20 pm)
Average46 °F79%29.94 "Hg
* Reported Jan 8 8:20 am — Jan 23 8:20 am, Cagliari, Weather by CustomWeather, © 2017

Note: Actual official high and low records may vary slightly from our data, if they occured in-between our weather recording intervals... More about our weather records

Advertising

Cagliari Weather History for the Previous 24 Hours

Scroll right to see more
 ConditionsComfort  
Time TempWeatherWind HumidityBarometerVisibility
8:20 am
Mon, Jan 23
41 °FPassing clouds.6 mph93%29.86 "Hg6 mi
7:50 am41 °FPassing clouds.6 mph93%29.86 "Hg5 mi
7:20 am43 °FPassing clouds.7 mph87%29.86 "HgN/A
6:50 am43 °FPassing clouds.6 mph93%29.86 "HgN/A
6:20 am45 °FPassing clouds.6 mph87%29.86 "HgN/A
5:50 am46 °FPassing clouds.5 mph87%29.86 "HgN/A
5:20 am46 °FPassing clouds.5 mph87%29.86 "HgN/A
4:50 am46 °FPassing clouds.6 mph87%29.86 "HgN/A
4:20 am46 °FPassing clouds.6 mph87%29.86 "HgN/A
3:50 am48 °FPassing clouds.6 mph82%29.89 "HgN/A
3:20 am46 °FClear.6 mph87%29.89 "Hg10 mi
2:50 am48 °FClear.7 mph82%29.89 "Hg10 mi
2:20 am48 °FClear.8 mph82%29.89 "Hg10 mi
1:50 am50 °FClear.7 mph76%29.89 "Hg10 mi
1:20 am48 °FClear.6 mph82%29.92 "Hg10 mi
12:50 am52 °FClear.9 mph77%29.92 "Hg10 mi
12:20 am52 °FClear.9 mph77%29.92 "Hg10 mi
11:50 pm
Sun, Jan 22
54 °FPassing clouds.10 mph77%29.92 "HgN/A
11:20 pm54 °FPassing clouds.10 mph77%29.92 "HgN/A
10:50 pm54 °FPassing clouds.10 mph72%29.92 "HgN/A
10:20 pm54 °FPassing clouds.12 mph77%29.92 "HgN/A
9:50 pm54 °FPassing clouds.13 mph77%29.92 "HgN/A
9:20 pm55 °FPassing clouds.14 mph72%29.89 "HgN/A
8:50 pm55 °FPassing clouds.13 mph72%29.92 "HgN/A
8:20 pm55 °FPassing clouds.12 mph77%29.92 "HgN/A
7:50 pm55 °FPassing clouds.10 mph77%29.92 "HgN/A
7:20 pm55 °FPassing clouds.12 mph72%29.92 "HgN/A
6:50 pm55 °FPassing clouds.14 mph77%29.89 "HgN/A
6:20 pm55 °FPassing clouds.17 mph72%29.89 "HgN/A
5:50 pm55 °FPassing clouds.16 mph72%29.89 "Hg5 mi
5:20 pm55 °FPassing clouds.17 mph72%29.89 "HgN/A
4:50 pm57 °FPassing clouds.18 mph67%29.89 "HgN/A
4:20 pm57 °FPassing clouds.20 mph67%29.89 "Hg5 mi
3:50 pm57 °FPassing clouds.21 mph67%29.89 "Hg5 mi
3:20 pm59 °FPassing clouds.21 mph63%29.89 "Hg5 mi
2:50 pm59 °FPassing clouds.23 mph59%29.89 "HgN/A
2:20 pm57 °FPassing clouds.20 mph63%29.89 "HgN/A
1:50 pm59 °FScattered clouds.23 mph63%29.89 "Hg4 mi
1:20 pm59 °FScattered clouds.21 mph63%29.92 "Hg4 mi
12:50 pm59 °FScattered clouds.20 mph63%29.92 "Hg4 mi
12:20 pm59 °FScattered clouds.20 mph63%29.92 "Hg4 mi
11:50 am59 °FFog.21 mph63%29.95 "Hg3 mi
11:20 am59 °FFog.22 mph59%29.95 "Hg3 mi
10:50 am57 °FFog.22 mph67%29.95 "Hg3 mi
10:20 am57 °FScattered clouds.22 mph63%29.95 "Hg4 mi
9:50 am55 °FScattered clouds.21 mph67%29.95 "Hg4 mi
9:20 am55 °FScattered clouds.21 mph63%29.92 "Hg4 mi
Weather by CustomWeather, © 2017

See weather overviewHow to use our weather pages